,,Stat6,,Stat2,,Stat8,,Stat9,,Stat10,,Wind1,,Wind1,
time,status,PA1M_AVG,status,PR1M_SUM,status,RH1M_AVG,status,SR1M_AVG,status,TA1M_AVG,status,W1dAve1m,status,W1sAve1m,
2005-04-18, 00:00:00,VALID,919.885,VALID,0,VALID,100,VALID,0.0169808,VALID,19.8865,VALID,76,VALID,0.347656,
2005-04-18, 00:01:00,VALID,919.885,VALID,0,VALID,100,VALID,0.0169808,VALID,19.8671,VALID,75,VALID,0.396399,
2005-04-18, 00:02:00,VALID,919.892,VALID,0,VALID,100,VALID,0.0169808,VALID,19.8711,VALID,69,VALID,0.531436,
2005-04-18, 00:03:00,VALID,919.881,VALID,0,VALID,100,VALID,0.0169808,VALID,19.8542,VALID,68,VALID,0.584666,
2005-04-18, 00:04:00,VALID,919.883,VALID,0,VALID,100,VALID,0.0169808,VALID,19.8542,VALID,66,VALID,0.608073,
2005-04-18, 00:05:00,VALID,919.875,VALID,0,VALID,100,VALID,0,VALID,19.8607,VALID,69,VALID,0.863867,
2005-04-18, 00:06:00,VALID,919.881,VALID,0,VALID,100,VALID,0,VALID,19.8607,VALID,69,VALID,0.804869,
2005-04-18, 00:07:00,VALID,919.878,VALID,0,VALID,100,VALID,0,VALID,19.8768,VALID,65,VALID,0.656977,
2005-04-18, 00:08:00,VALID,919.874,VALID,0,VALID,100,VALID,0.0339617,VALID,19.9064,VALID,65,VALID,0.512355,
2005-04-18, 00:09:00,VALID,919.891,VALID,0,VALID,100,VALID,0.0169808,VALID,19.9094,VALID,62,VALID,0.460742,
2005-04-18, 00:10:00,VALID,919.885,VALID,0,VALID,100,VALID,0,VALID,19.9027,VALID,50,VALID,0.518973,
2005-04-18, 00:11:00,VALID,919.89,VALID,0,VALID,100,VALID,0.0169808,VALID,19.9161,VALID,47,VALID,0.487723,
2005-04-18, 00:12:00,VALID,919.884,VALID,0,VALID,100,VALID,0,VALID,19.9191,VALID,33,VALID,0.461496,
2005-04-18, 00:13:00,VALID,919.877,VALID,0,VALID,100,VALID,0,VALID,19.9121,VALID,22,VALID,0.68022,
2005-04-18, 00:14:00,VALID,919.89,VALID,0,VALID,100,VALID,0.0339617,VALID,19.9255,VALID,22,VALID,0.782138,
2005-04-18, 00:15:00,VALID,919.876,VALID,0,VALID,100,VALID,0.0339617,VALID,19.9151,VALID,22,VALID,0.790931,
2005-04-18, 00:16:00,VALID,919.872,VALID,0,VALID,100,VALID,0.0169808,VALID,19.9188,VALID,22,VALID,0.791788,
2005-04-18, 00:17:00,VALID,919.88,VALID,0,VALID,100,VALID,0,VALID,19.9156,VALID,22,VALID,0.609566,
2005-04-18, 00:18:00,VALID,919.857,VALID,0,VALID,100,VALID,0,VALID,19.9357,VALID,22,VALID,0.428686,
2005-04-18, 00:19:00,VALID,919.861,VALID,0,VALID,100,VALID,0.0339617,VALID,19.9454,VALID,22,VALID,0.380766,
2005-04-18, 00:20:00,VALID,919.85,VALID,0,VALID,100,VALID,0.0169808,VALID,19.9481,VALID,22,VALID,0.370508,
2005-04-18, 00:21:00,VALID,919.849,VALID,0,VALID,100,VALID,0,VALID,19.9742,VALID,22,VALID,0.329055,
2005-04-18, 00:22:00,VALID,919.847,VALID,0,VALID,100,VALID,0.0339617,VALID,19.9866,VALID,22,VALID,0.546709,
2005-04-18, 00:23:00,VALID,919.84,VALID,0,VALID,100,VALID,0.0169808,VALID,20.0062,VALID,22,VALID,0.579055,
2005-04-18, 00:24:00,VALID,919.836,VALID,0,VALID,100,VALID,0.0509425,VALID,20.0318,VALID,22,VALID,0.559837,
2005-04-18, 00:25:00,VALID,919.828,VALID,0,VALID,100,VALID,0.0169808,VALID,20.0544,VALID,22,VALID,0.506177,
2005-04-18, 00:26:00,VALID,919.829,VALID,0,VALID,100,VALID,0.0169808,VALID,20.0768,VALID,22,VALID,0.433239,
2005-04-18, 00:27:00,VALID,919.821,VALID,0,VALID,100,VALID,0.0169808,VALID,20.0929,VALID,22,VALID,0.397485,
2005-04-18, 00:28:00,VALID,919.809,VALID,0,VALID,100,VALID,0.0169808,VALID,20.1029,VALID,22,VALID,0.392113,
2005-04-18, 00:29:00,VALID,919.803,VALID,0,VALID,100,VALID,0,VALID,20.1098,VALID,22,VALID,0.24295,
2005-04-18, 00:30:00,VALID,919.784,VALID,0,VALID,100,VALID,0,VALID,20.1227,VALID,22,VALID,0.0917969,
2005-04-18, 00:31:00,VALID,919.771,VALID,0,VALID,100,VALID,0.0169808,VALID,20.1322,VALID,22,VALID,0,
2005-04-18, 00:32:00,VALID,919.74,VALID,0,VALID,100,VALID,0,VALID,20.1583,VALID,22,VALID,0,
2005-04-18, 00:33:00,VALID,919.717,VALID,0,VALID,100,VALID,0.0169808,VALID,20.1707,VALID,22,VALID,0,
2005-04-18, 00:34:00,VALID,919.704,VALID,0,VALID,100,VALID,0,VALID,20.1838,VALID,22,VALID,0.368253,
2005-04-18, 00:35:00,VALID,919.67,VALID,0,VALID,100,VALID,0.0169808,VALID,20.1868,VALID,22,VALID,0.387005,
2005-04-18, 00:36:00,VALID,919.665,VALID,0,VALID,100,VALID,0.0339617,VALID,20.1965,VALID,22,VALID,0.366319,
2005-04-18, 00:37:00,VALID,919.643,VALID,0,VALID,100,VALID,0.0339617,VALID,20.1962,VALID,22,VALID,0.245028,
2005-04-18, 00:38:00,VALID,919.627,VALID,0,VALID,100,VALID,0,VALID,20.2223,VALID,22,VALID,0.25293,
2005-04-18, 00:39:00,VALID,919.62,VALID,0,VALID,100,VALID,0.0169808,VALID,20.2228,VALID,22,VALID,0.274182,
2005-04-18, 00:40:00,VALID,919.599,VALID,0,VALID,100,VALID,0.0169808,VALID,20.2288,VALID,22,VALID,0.178163,
2005-04-18, 00:41:00,VALID,919.595,VALID,0,VALID,100,VALID,0.0169808,VALID,20.2484,VALID,22,VALID,0.383878,
2005-04-18, 00:42:00,VALID,919.574,VALID,0,VALID,100,VALID,0.0169808,VALID,20.2772,VALID,22,VALID,0.265807,
2005-04-18, 00:43:00,VALID,919.565,VALID,0,VALID,100,VALID,0.0169808,VALID,20.267,VALID,5,VALID,0.417436,
2005-04-18, 00:44:00,VALID,919.545,VALID,0,VALID,100,VALID,0.0339617,VALID,20.2703,VALID,359,VALID,0.338601,
2005-04-18, 00:45:00,VALID,919.531,VALID,0,VALID,100,VALID,0.0509425,VALID,20.2188,VALID,359,VALID,0.457485,
2005-04-18, 00:46:00,VALID,919.497,VALID,0,VALID,100,VALID,0.0169808,VALID,20.1933,VALID,359,VALID,0.457217,
2005-04-18, 00:47:00,VALID,919.482,VALID,0,VALID,100,VALID,0.0509425,VALID,20.164,VALID,338,VALID,0.468378,
2005-04-18, 00:48:00,VALID,919.461,VALID,0,VALID,100,VALID,0.0339617,VALID,20.1669,VALID,306,VALID,0.530523,
2005-04-18, 00:49:00,VALID,919.448,VALID,0,VALID,100,VALID,0.0339617,VALID,20.1704,VALID,305,VALID,0.242578,
2005-04-18, 00:50:00,VALID,919.443,VALID,0,VALID,100,VALID,-0.0169808,VALID,20.1843,VALID,305,VALID,0.0106534,
2005-04-18, 00:51:00,VALID,919.427,VALID,0,VALID,100,VALID,-0.0509425,VALID,20.1948,VALID,305,VALID,0,
2005-04-18, 00:52:00,VALID,919.418,VALID,0,VALID,100,VALID,-0.0169808,VALID,20.1843,VALID,305,VALID,0.0732195,
2005-04-18, 00:53:00,VALID,919.395,VALID,0,VALID,100,VALID,0,VALID,20.1943,VALID,305,VALID,0.00213068,
2005-04-18, 00:54:00,VALID,919.379,VALID,0,VALID,100,VALID,-0.0509425,VALID,20.2069,VALID,305,VALID,0.148838,
2005-04-18, 00:55:00,VALID,919.358,VALID,0,VALID,100,VALID,-0.0509425,VALID,20.2328,VALID,305,VALID,0,
2005-04-18, 00:56:00,VALID,919.321,VALID,0,VALID,100,VALID,-0.0339617,VALID,20.2325,VALID,305,VALID,0,
2005-04-18, 00:57:00,VALID,919.29,VALID,0,VALID,100,VALID,-0.0169808,VALID,20.2527,VALID,305,VALID,0,
2005-04-18, 00:58:00,VALID,919.267,VALID,0,VALID,100,VALID,0,VALID,20.2613,VALID,305,VALID,0,
2005-04-18, 00:59:00,VALID,919.258,VALID,0,VALID,100,VALID,-0.0509425,VALID,20.2586,VALID,305,VALID,0,
2005-04-18, 01:00:00,VALID,919.248,VALID,0,VALID,100,VALID,-0.0679233,VALID,20.2586,VALID,305,VALID,0,
2005-04-18, 01:01:00,VALID,919.233,VALID,0,VALID,100,VALID,-0.0339617,VALID,20.272,VALID,305,VALID,0,
2005-04-18, 01:02:00,VALID,919.232,VALID,0,VALID,100,VALID,-0.0679233,VALID,20.2718,VALID,305,VALID,0.0390625,
2005-04-18, 01:03:00,VALID,919.219,VALID,0,VALID,100,VALID,-0.0509425,VALID,20.2715,VALID,305,VALID,0,
2005-04-18, 01:04:00,VALID,919.217,VALID,0,VALID,100,VALID,-0.0849042,VALID,20.2782,VALID,305,VALID,0,
2005-04-18, 01:05:00,VALID,919.198,VALID,0,VALID,100,VALID,0.0509425,VALID,20.2705,VALID,305,VALID,0.0119141,
2005-04-18, 01:06:00,VALID,919.182,VALID,0,VALID,100,VALID,0.0849042,VALID,20.2705,VALID,305,VALID,0.0161701,
2005-04-18, 01:07:00,VALID,919.175,VALID,0,VALID,100,VALID,0.0509425,VALID,20.2638,VALID,305,VALID,0.176067,
2005-04-18, 01:08:00,VALID,919.17,VALID,0,VALID,100,VALID,0.0679233,VALID,20.2606,VALID,305,VALID,0.255814,
2005-04-18, 01:09:00,VALID,919.16,VALID,0,VALID,100,VALID,0.0849042,VALID,20.2506,VALID,305,VALID,0.158736,
2005-04-18, 01:10:00,VALID,919.142,VALID,0,VALID,100,VALID,0.0679233,VALID,20.2335,VALID,305,VALID,0.0539773,
2005-04-18, 01:11:00,VALID,919.133,VALID,0,VALID,100,VALID,0.0509425,VALID,20.2571,VALID,305,VALID,0.00967262,
2005-04-18, 01:12:00,VALID,919.125,VALID,0,VALID,100,VALID,0.0339617,VALID,20.2608,VALID,305,VALID,0.213034,
2005-04-18, 01:13:00,VALID,919.116,VALID,0,VALID,100,VALID,0,VALID,20.2474,VALID,305,VALID,0.0775799,
2005-04-18, 01:14:00,VALID,919.113,VALID,0,VALID,100,VALID,0.0679233,VALID,20.2539,VALID,305,VALID,0.13891,
2005-04-18, 01:15:00,VALID,919.113,VALID,0,VALID,100,VALID,0.0679233,VALID,20.2471,VALID,305,VALID,0.201736,
2005-04-18, 01:16:00,VALID,919.105,VALID,0,VALID,100,VALID,0.0509425,VALID,20.2412,VALID,305,VALID,0.321403,
2005-04-18, 01:17:00,VALID,919.097,VALID,0,VALID,100,VALID,0.0169808,VALID,20.2251,VALID,305,VALID,0.344477,
2005-04-18, 01:18:00,VALID,919.104,VALID,0,VALID,100,VALID,0.0509425,VALID,20.2054,VALID,304,VALID,0.382813,
2005-04-18, 01:19:00,VALID,919.105,VALID,0,VALID,100,VALID,0.0679233,VALID,20.1955,VALID,303,VALID,0.254906,
2005-04-18, 01:20:00,VALID,919.113,VALID,0,VALID,100,VALID,0.0509425,VALID,20.1826,VALID,303,VALID,0.127604,
2005-04-18, 01:21:00,VALID,919.104,VALID,0,VALID,100,VALID,0.0679233,VALID,20.1798,VALID,303,VALID,0.0514482,
2005-04-18, 01:22:00,VALID,919.088,VALID,0,VALID,100,VALID,0.0339617,VALID,20.1863,VALID,303,VALID,0.00120192,
2005-04-18, 01:23:00,VALID,919.074,VALID,0,VALID,100,VALID,0.0509425,VALID,20.1866,VALID,303,VALID,0,
2005-04-18, 01:24:00,VALID,919.055,VALID,0,VALID,100,VALID,0.0509425,VALID,20.1863,VALID,303,VALID,0,
2005-04-18, 01:25:00,VALID,919.023,VALID,0,VALID,100,VALID,0.0339617,VALID,20.1895,VALID,303,VALID,0,
2005-04-18, 01:26:00,VALID,919.009,VALID,0,VALID,100,VALID,0.0339617,VALID,20.1957,VALID,303,VALID,0,
2005-04-18, 01:27:00,VALID,918.989,VALID,0,VALID,100,VALID,0.0679233,VALID,20.196,VALID,303,VALID,0.0101744,
2005-04-18, 01:28:00,VALID,918.954,VALID,0,VALID,100,VALID,0.0339617,VALID,20.1925,VALID,303,VALID,0.230183,
2005-04-18, 01:29:00,VALID,918.929,VALID,0,VALID,100,VALID,0.101885,VALID,20.1962,VALID,303,VALID,0.321766,
2005-04-18, 01:30:00,VALID,918.92,VALID,0,VALID,100,VALID,0.0509425,VALID,20.196,VALID,303,VALID,0.0988372,
2005-04-18, 01:31:00,VALID,918.898,VALID,0,VALID,100,VALID,0.0339617,VALID,20.1992,VALID,303,VALID,0,
2005-04-18, 01:32:00,VALID,918.887,VALID,0,VALID,100,VALID,0.0679233,VALID,20.2151,VALID,303,VALID,0,
2005-04-18, 01:33:00,VALID,918.869,VALID,0,VALID,100,VALID,0.0849042,VALID,20.2382,VALID,303,VALID,0,
2005-04-18, 01:34:00,VALID,918.862,VALID,0,VALID,100,VALID,0.0339617,VALID,20.2375,VALID,303,VALID,0,
2005-04-18, 01:35:00,VALID,918.835,VALID,0,VALID,100,VALID,-0.0679233,VALID,20.236,VALID,303,VALID,0,
2005-04-18, 01:36:00,VALID,918.828,VALID,0,VALID,100,VALID,-0.0339617,VALID,20.2261,VALID,303,VALID,0,
2005-04-18, 01:37:00,VALID,918.815,VALID,0,VALID,100,VALID,-0.0679233,VALID,20.2196,VALID,303,VALID,0,
2005-04-18, 01:38:00,VALID,918.803,VALID,0,VALID,100,VALID,0,VALID,20.2134,VALID,303,VALID,0,
2005-04-18, 01:39:00,VALID,918.792,VALID,0,VALID,100,VALID,-0.0509425,VALID,20.2,VALID,303,VALID,0,
2005-04-18, 01:40:00,VALID,918.775,VALID,0,VALID,100,VALID,0,VALID,20.1806,VALID,303,VALID,0,
2005-04-18, 01:41:00,VALID,918.755,VALID,0,VALID,100,VALID,-0.0509425,VALID,20.1811,VALID,303,VALID,0,
2005-04-18, 01:42:00,VALID,918.722,VALID,0,VALID,100,VALID,-0.0339617,VALID,20.1806,VALID,303,VALID,0,
2005-04-18, 01:43:00,VALID,918.696,VALID,0,VALID,100,VALID,-0.0509425,VALID,20.1779,VALID,303,VALID,0,
2005-04-18, 01:44:00,VALID,918.67,VALID,0,VALID,100,VALID,-0.0339617,VALID,20.1717,VALID,303,VALID,0,
2005-04-18, 01:45:00,VALID,918.642,VALID,0,VALID,100,VALID,0,VALID,20.1453,VALID,303,VALID,0.174851,
2005-04-18, 01:46:00,VALID,918.626,VALID,0,VALID,100,VALID,-0.0339617,VALID,20.1351,VALID,303,VALID,0.303089,
2005-04-18, 01:47:00,VALID,918.596,VALID,0,VALID,100,VALID,-0.0169808,VALID,20.1324,VALID,303,VALID,0.312137,
2005-04-18, 01:48:00,VALID,918.584,VALID,0,VALID,100,VALID,0,VALID,20.1327,VALID,303,VALID,0.284784,
2005-04-18, 01:49:00,VALID,918.575,VALID,0,VALID,100,VALID,-0.0509425,VALID,20.1125,VALID,303,VALID,0.267442,
2005-04-18, 01:50:00,VALID,918.558,VALID,0,VALID,100,VALID,-0.0509425,VALID,20.1138,VALID,303,VALID,0.258003,
2005-04-18, 01:51:00,VALID,918.538,VALID,0,VALID,100,VALID,-0.0849042,VALID,20.0907,VALID,303,VALID,0.12173,
2005-04-18, 01:52:00,VALID,918.527,VALID,0,VALID,100,VALID,-0.0679233,VALID,20.0979,VALID,303,VALID,0.265811,
2005-04-18, 01:53:00,VALID,918.516,VALID,0,VALID,100,VALID,-0.0849042,VALID,20.0845,VALID,303,VALID,0.259233,
2005-04-18, 01:54:00,VALID,918.496,VALID,0,VALID,100,VALID,0,VALID,20.0942,VALID,347,VALID,0.508176,
2005-04-18, 01:55:00,VALID,918.479,VALID,0,VALID,100,VALID,-0.0679233,VALID,20.0979,VALID,25,VALID,0.504439,
2005-04-18, 01:56:00,VALID,918.469,VALID,0,VALID,100,VALID,-0.0509425,VALID,20.0937,VALID,36,VALID,0.528525,
2005-04-18, 01:57:00,VALID,918.457,VALID,0,VALID,100,VALID,-0.0849042,VALID,20.088,VALID,53,VALID,0.650568,
2005-04-18, 01:58:00,VALID,918.456,VALID,0,VALID,100,VALID,-0.0679233,VALID,20.0751,VALID,60,VALID,0.494496,
2005-04-18, 01:59:00,VALID,918.45,VALID,0,VALID,100,VALID,-0.0509425,VALID,20.0621,VALID,78,VALID,0.445313,
2005-04-18, 02:00:00,VALID,918.438,VALID,0,VALID,100,VALID,-0.0339617,VALID,20.0495,VALID,78,VALID,0.514898,
2005-04-18, 02:01:00,VALID,918.426,VALID,0,VALID,100,VALID,-0.0679233,VALID,20.0266,VALID,78,VALID,0.481517,
2005-04-18, 02:02:00,VALID,918.425,VALID,0,VALID,100,VALID,-0.101885,VALID,20.0236,VALID,78,VALID,0.477679,
2005-04-18, 02:03:00,VALID,918.426,VALID,0,VALID,100,VALID,-0.0679233,VALID,20.0134,VALID,78,VALID,0.374455,
2005-04-18, 02:04:00,VALID,918.413,VALID,0,VALID,100,VALID,-0.0679233,VALID,20.0134,VALID,78,VALID,0.275298,
2005-04-18, 02:05:00,VALID,918.406,VALID,0,VALID,100,VALID,0.0169808,VALID,20.0092,VALID,78,VALID,0.046875,
2005-04-18, 02:06:00,VALID,918.412,VALID,0,VALID,100,VALID,0,VALID,20.0028,VALID,78,VALID,0,
2005-04-18, 02:07:00,VALID,918.406,VALID,0,VALID,100,VALID,0.0339617,VALID,19.9901,VALID,78,VALID,0.000887784,
2005-04-18, 02:08:00,VALID,918.413,VALID,0,VALID,100,VALID,0.0169808,VALID,19.9936,VALID,78,VALID,0.0895712,
2005-04-18, 02:09:01,VALID,918.416,VALID,0,VALID,100,VALID,0,VALID,19.9769,VALID,61,VALID,0.58718,
2005-04-18, 02:10:00,VALID,918.407,VALID,0,VALID,100,VALID,0.0509425,VALID,19.9479,VALID,46,VALID,0.56032,
2005-04-18, 02:11:00,VALID,918.416,VALID,0,VALID,100,VALID,0.0169808,VALID,19.9476,VALID,46,VALID,0.503348,
2005-04-18, 02:12:00,VALID,918.416,VALID,0,VALID,100,VALID,0.0509425,VALID,19.9476,VALID,46,VALID,0.625868,
2005-04-18, 02:13:00,VALID,918.419,VALID,0,VALID,100,VALID,0.0339617,VALID,19.9446,VALID,46,VALID,0.443359,
2005-04-18, 02:14:00,VALID,918.429,VALID,0,VALID,100,VALID,0.0339617,VALID,19.9446,VALID,46,VALID,0.438772,
2005-04-18, 02:15:00,VALID,918.438,VALID,0,VALID,100,VALID,0.0169808,VALID,19.9511,VALID,46,VALID,0.454613,
2005-04-18, 02:16:00,VALID,918.441,VALID,0,VALID,100,VALID,0.0339617,VALID,19.9414,VALID,46,VALID,0.363948,
2005-04-18, 02:17:01,VALID,918.438,VALID,0,VALID,100,VALID,0.0679233,VALID,19.9153,VALID,46,VALID,0.341264,
2005-04-18, 02:18:00,VALID,918.426,VALID,0,VALID,100,VALID,0.0679233,VALID,19.9022,VALID,46,VALID,0.27096,
2005-04-18, 02:19:01,VALID,918.422,VALID,0,VALID,100,VALID,0,VALID,19.8863,VALID,46,VALID,0.372692,
2005-04-18, 02:20:00,VALID,918.414,VALID,0,VALID,100,VALID,-0.0339617,VALID,19.8748,VALID,46,VALID,0.404119,
2005-04-18, 02:21:00,VALID,918.402,VALID,0,VALID,100,VALID,-0.0509425,VALID,19.8488,VALID,46,VALID,0.425145,
2005-04-18, 02:22:01,VALID,918.409,VALID,0,VALID,100,VALID,-0.0679233,VALID,19.8366,VALID,46,VALID,0.34282,
2005-04-18, 02:23:00,VALID,918.412,VALID,0,VALID,100,VALID,-0.0509425,VALID,19.8234,VALID,46,VALID,0.250762,
2005-04-18, 02:24:00,VALID,918.43,VALID,0,VALID,100,VALID,-0.0679233,VALID,19.8234,VALID,46,VALID,0.0999645,
2005-04-18, 02:25:01,VALID,918.438,VALID,0,VALID,100,VALID,-0.101885,VALID,19.8137,VALID,46,VALID,0.378811,
2005-04-18, 02:26:00,VALID,918.453,VALID,0,VALID,100,VALID,-0.0679233,VALID,19.8234,VALID,46,VALID,0.457698,
2005-04-18, 02:27:01,VALID,918.464,VALID,0,VALID,100,VALID,-0.101885,VALID,19.8366,VALID,38,VALID,0.574886,
2005-04-18, 02:28:00,VALID,918.467,VALID,0,VALID,100,VALID,-0.0849042,VALID,19.8197,VALID,19,VALID,0.73165,
2005-04-18, 02:29:00,VALID,918.466,VALID,0,VALID,100,VALID,-0.0849042,VALID,19.8396,VALID,18,VALID,0.571007,
2005-04-18, 02:30:01,VALID,918.461,VALID,0,VALID,100,VALID,-0.0509425,VALID,19.8522,VALID,18,VALID,0.414253,
2005-04-18, 02:31:00,VALID,918.455,VALID,0,VALID,100,VALID,-0.101885,VALID,19.8587,VALID,18,VALID,0.266335,
2005-04-18, 02:32:00,VALID,918.432,VALID,0,VALID,100,VALID,-0.0849042,VALID,19.8654,VALID,18,VALID,0.0579861,
2005-04-18, 02:33:00,VALID,918.421,VALID,0,VALID,100,VALID,-0.0849042,VALID,19.8686,VALID,18,VALID,0,
2005-04-18, 02:34:01,VALID,918.416,VALID,0,VALID,100,VALID,-0.0849042,VALID,19.8689,VALID,18,VALID,0,
2005-04-18, 02:35:00,VALID,918.417,VALID,0,VALID,100,VALID,-0.0679233,VALID,19.8657,VALID,18,VALID,0,
2005-04-18, 02:36:00,VALID,918.411,VALID,0,VALID,100,VALID,-0.0679233,VALID,19.856,VALID,18,VALID,0,
2005-04-18, 02:37:01,VALID,918.393,VALID,0,VALID,100,VALID,-0.0679233,VALID,19.8299,VALID,18,VALID,0.128348,
2005-04-18, 02:38:00,VALID,918.388,VALID,0,VALID,100,VALID,-0.101885,VALID,19.8108,VALID,18,VALID,0.216654,
2005-04-18, 02:39:00,VALID,918.377,VALID,0,VALID,100,VALID,-0.0679233,VALID,19.7941,VALID,18,VALID,0.208333,
2005-04-18, 02:40:00,VALID,918.372,VALID,0,VALID,100,VALID,-0.0509425,VALID,19.7847,VALID,29,VALID,0.444949,
2005-04-18, 02:41:00,VALID,918.368,VALID,0,VALID,100,VALID,-0.101885,VALID,19.7782,VALID,41,VALID,0.443266,
2005-04-18, 02:42:00,VALID,918.349,VALID,0,VALID,100,VALID,-0.0679233,VALID,19.7782,VALID,41,VALID,0.4375,
2005-04-18, 02:43:01,VALID,918.354,VALID,0,VALID,100,VALID,-0.0679233,VALID,19.7782,VALID,41,VALID,0.302344,
2005-04-18, 02:44:00,VALID,918.338,VALID,0,VALID,100,VALID,-0.0679233,VALID,19.7782,VALID,41,VALID,0.210747,
2005-04-18, 02:45:01,VALID,918.346,VALID,0,VALID,100,VALID,-0.0679233,VALID,19.7752,VALID,41,VALID,0.0796535,
2005-04-18, 02:46:00,VALID,918.337,VALID,0,VALID,100,VALID,-0.0509425,VALID,19.775,VALID,41,VALID,0,
2005-04-18, 02:47:01,VALID,918.347,VALID,0,VALID,100,VALID,-0.0849042,VALID,19.7715,VALID,41,VALID,0,
2005-04-18, 02:48:00,VALID,918.352,VALID,0,VALID,100,VALID,-0.0509425,VALID,19.772,VALID,41,VALID,0,
2005-04-18, 02:49:00,VALID,918.366,VALID,0,VALID,100,VALID,-0.0679233,VALID,19.7494,VALID,41,VALID,0,
2005-04-18, 02:50:00,VALID,918.376,VALID,0,VALID,100,VALID,-0.0679233,VALID,19.7169,VALID,41,VALID,0,
2005-04-18, 02:51:00,VALID,918.388,VALID,0,VALID,100,VALID,-0.101885,VALID,19.698,VALID,41,VALID,0,
2005-04-18, 02:52:00,VALID,918.405,VALID,0,VALID,100,VALID,-0.101885,VALID,19.6558,VALID,41,VALID,0,
2005-04-18, 02:53:00,VALID,918.415,VALID,0,VALID,100,VALID,-0.0849042,VALID,19.6334,VALID,41,VALID,0,
2005-04-18, 02:54:00,VALID,918.412,VALID,0,VALID,100,VALID,-0.0849042,VALID,19.6267,VALID,41,VALID,0.0297619,
2005-04-18, 02:55:00,VALID,918.409,VALID,0,VALID,100,VALID,-0.0849042,VALID,19.62,VALID,41,VALID,0.0104759,
2005-04-18, 02:56:01,VALID,918.413,VALID,0,VALID,100,VALID,-0.101885,VALID,19.6138,VALID,59,VALID,0.322674,
2005-04-18, 02:57:00,VALID,918.413,VALID,0,VALID,100,VALID,-0.0849042,VALID,19.6069,VALID,116,VALID,0.41183,
2005-04-18, 02:58:00,VALID,918.408,VALID,0,VALID,100,VALID,-0.101885,VALID,19.6143,VALID,146,VALID,0.432884,
2005-04-18, 02:59:00,VALID,918.41,VALID,0,VALID,100,VALID,-0.0849042,VALID,19.627,VALID,168,VALID,0.463889,
2005-04-18, 03:00:00,VALID,918.4,VALID,0,VALID,100,VALID,-0.101885,VALID,19.6399,VALID,172,VALID,0.452762,
2005-04-18, 03:01:00,VALID,918.401,VALID,0,VALID,100,VALID,-0.101885,VALID,19.6334,VALID,176,VALID,0.715799,
2005-04-18, 03:02:00,VALID,918.406,VALID,0,VALID,100,VALID,-0.101885,VALID,19.6108,VALID,171,VALID,0.867733,
2005-04-18, 03:03:00,VALID,918.398,VALID,0,VALID,100,VALID,-0.0679233,VALID,19.5755,VALID,174,VALID,0.782774,
2005-04-18, 03:04:01,VALID,918.383,VALID,0,VALID,100,VALID,-0.118866,VALID,19.5425,VALID,172,VALID,0.758956,
2005-04-18, 03:05:00,VALID,918.366,VALID,0,VALID,100,VALID,0,VALID,19.5485,VALID,178,VALID,0.716332,
2005-04-18, 03:06:00,VALID,918.334,VALID,0,VALID,100,VALID,0,VALID,19.551,VALID,179,VALID,0.758662,
2005-04-18, 03:07:00,VALID,918.325,VALID,0,VALID,100,VALID,0.0509425,VALID,19.5711,VALID,180,VALID,0.411272,
2005-04-18, 03:08:00,VALID,918.287,VALID,0,VALID,100,VALID,0,VALID,19.5902,VALID,180,VALID,0.0179869,
2005-04-18, 03:09:01,VALID,918.264,VALID,0,VALID,100,VALID,0,VALID,19.6123,VALID,180,VALID,0.0228516,
2005-04-18, 03:10:01,VALID,918.241,VALID,0,VALID,100,VALID,0.0339617,VALID,19.6128,VALID,180,VALID,0.114025,
2005-04-18, 03:11:00,VALID,918.223,VALID,0,VALID,100,VALID,0.0169808,VALID,19.6059,VALID,180,VALID,0.250558,
2005-04-18, 03:12:00,VALID,918.199,VALID,0,VALID,100,VALID,0,VALID,19.5929,VALID,169,VALID,0.39881,
2005-04-18, 03:13:01,VALID,918.202,VALID,0,VALID,100,VALID,0,VALID,19.6034,VALID,169,VALID,0.365589,
2005-04-18, 03:14:00,VALID,918.201,VALID,0,VALID,100,VALID,0.0169808,VALID,19.6001,VALID,169,VALID,0.264535,
2005-04-18, 03:15:00,VALID,918.228,VALID,0,VALID,100,VALID,0,VALID,19.591,VALID,169,VALID,0.313244,
2005-04-18, 03:16:01,VALID,918.239,VALID,0,VALID,100,VALID,0.0679233,VALID,19.5706,VALID,169,VALID,0.101372,
2005-04-18, 03:17:00,VALID,918.268,VALID,0,VALID,100,VALID,0.0339617,VALID,19.5738,VALID,169,VALID,0,
2005-04-18, 03:18:00,VALID,918.288,VALID,0,VALID,100,VALID,0,VALID,19.5867,VALID,169,VALID,0,
2005-04-18, 03:19:00,VALID,918.297,VALID,0,VALID,100,VALID,0,VALID,19.584,VALID,169,VALID,0,
2005-04-18, 03:20:00,VALID,918.302,VALID,0,VALID,100,VALID,0.0339617,VALID,19.587,VALID,169,VALID,0,
2005-04-18, 03:21:01,VALID,918.316,VALID,0,VALID,100,VALID,0,VALID,19.5969,VALID,169,VALID,0,
2005-04-18, 03:22:00,VALID,918.316,VALID,0,VALID,100,VALID,0,VALID,19.58,VALID,169,VALID,0,
2005-04-18, 03:23:00,VALID,918.318,VALID,0,VALID,100,VALID,0,VALID,19.5803,VALID,169,VALID,0,
2005-04-18, 03:24:00,VALID,918.32,VALID,0,VALID,100,VALID,0.0509425,VALID,19.5805,VALID,163,VALID,0.298363,
2005-04-18, 03:25:00,VALID,918.337,VALID,0,VALID,100,VALID,0.0169808,VALID,19.5743,VALID,108,VALID,0.507631,
2005-04-18, 03:26:01,VALID,918.363,VALID,0,VALID,100,VALID,0,VALID,19.5515,VALID,63,VALID,0.482195,
2005-04-18, 03:27:00,VALID,918.374,VALID,0,VALID,100,VALID,0.0169808,VALID,19.5323,VALID,63,VALID,0.418924,
2005-04-18, 03:28:01,VALID,918.389,VALID,0,VALID,100,VALID,0.0339617,VALID,19.5033,VALID,64,VALID,0.5,
2005-04-18, 03:29:01,VALID,918.387,VALID,0,VALID,100,VALID,-0.0169808,VALID,19.4998,VALID,68,VALID,0.513021,
2005-04-18, 03:30:01,VALID,918.381,VALID,0,VALID,100,VALID,0.0169808,VALID,19.4708,VALID,71,VALID,0.558321,
2005-04-18, 03:31:00,VALID,918.375,VALID,0,VALID,100,VALID,0.0169808,VALID,19.4511,VALID,99,VALID,0.759487,
2005-04-18, 03:32:00,VALID,918.35,VALID,0,VALID,100,VALID,0.0169808,VALID,19.438,VALID,114,VALID,0.941964,
2005-04-18, 03:33:00,VALID,918.336,VALID,0,VALID,100,VALID,0,VALID,19.4514,VALID,118,VALID,0.703887,
2005-04-18, 03:34:00,VALID,918.299,VALID,0,VALID,100,VALID,0.0339617,VALID,19.4514,VALID,110,VALID,0.945494,
2005-04-18, 03:35:01,VALID,918.285,VALID,0,VALID,100,VALID,0.0169808,VALID,19.4444,VALID,113,VALID,0.849077,
2005-04-18, 03:36:00,VALID,918.275,VALID,0,VALID,100,VALID,0.0339617,VALID,19.4412,VALID,109,VALID,0.821801,
2005-04-18, 03:37:00,VALID,918.268,VALID,0,VALID,100,VALID,0.0169808,VALID,19.4511,VALID,98,VALID,0.985863,
2005-04-18, 03:38:01,VALID,918.248,VALID,0,VALID,100,VALID,0.0169808,VALID,19.4479,VALID,94,VALID,0.766984,
2005-04-18, 03:39:01,VALID,918.248,VALID,0,VALID,100,VALID,0.0169808,VALID,19.4285,VALID,96,VALID,0.622954,
2005-04-18, 03:40:00,VALID,918.242,VALID,0,VALID,100,VALID,0.0169808,VALID,19.4156,VALID,96,VALID,0.486579,
2005-04-18, 03:41:01,VALID,918.236,VALID,0,VALID,100,VALID,0.0339617,VALID,19.403,VALID,96,VALID,0.434482,
2005-04-18, 03:42:00,VALID,918.234,VALID,0,VALID,100,VALID,0.0339617,VALID,19.4131,VALID,100,VALID,0.667791,